Time,TemperatureF,DewpointF,PressureIn,WindDirection,WindDirectionDegrees,WindSpeedMPH,WindSpeedGustMPH,Humidity,HourlyPrecipIn,Conditions,Clouds,dailyrainin,SoftwareType,DateUTC
2013-04-09 00:00:00,47.1,40.3,30.11,South,178,3.0,10.0,77,0.00,,,0.00,LWC V2.10 B1702,2013-04-09 04:00:00,
2013-04-09 00:01:00,47.1,40.3,30.10,SSW,198,5.0,5.0,77,0.00,,,0.00,LWC V2.10 B1702,2013-04-09 04:01:00,
2013-04-09 00:06:00,47.0,40.5,30.10,SE,127,3.0,5.0,78,0.00,,,0.00,LWC V2.10 B1702,2013-04-09 04:06:00,
2013-04-09 00:11:00,47.0,40.5,30.11,SE,128,0.0,5.0,78,0.00,,,0.00,LWC V2.10 B1702,2013-04-09 04:11:00,
2013-04-09 00:14:00,47.0,40.5,30.11,SSW,202,0.0,6.0,78,0.00,,,0.00,LWC V2.10 B1702,2013-04-09 04:14:00,
2013-04-09 00:19:00,46.9,40.4,30.11,East,84,1.0,4.0,78,0.00,,,0.00,LWC V2.10 B1702,2013-04-09 04:19:00,
2013-04-09 00:24:00,46.9,40.4,30.11,SSW,196,1.0,4.0,78,0.00,,,0.00,LWC V2.10 B1702,2013-04-09 04:24:00,
2013-04-09 00:29:00,47.0,40.5,30.10,South,173,3.0,7.0,78,0.00,,,0.00,LWC V2.10 B1702,2013-04-09 04:29:00,
2013-04-09 00:34:00,47.0,40.5,30.10,SE,139,2.0,5.0,78,0.00,,,0.00,LWC V2.10 B1702,2013-04-09 04:34:00,
2013-04-09 00:39:00,47.0,40.5,30.10,SSE,159,2.0,8.0,78,0.00,,,0.00,LWC V2.10 B1702,2013-04-09 04:39:00,
2013-04-09 00:44:00,47.1,40.6,30.10,South,179,1.0,3.0,78,0.00,,,0.00,LWC V2.10 B1702,2013-04-09 04:44:00,
2013-04-09 00:49:00,47.1,40.6,30.10,South,175,1.0,1.0,78,0.00,,,0.00,LWC V2.10 B1702,2013-04-09 04:49:00,
2013-04-09 00:54:00,47.1,40.6,30.09,South,176,1.0,3.0,78,0.00,,,0.00,LWC V2.10 B1702,2013-04-09 04:54:00,
2013-04-09 00:59:00,47.2,40.7,30.09,SSE,154,2.0,4.0,78,0.00,,,0.00,LWC V2.10 B1702,2013-04-09 04:59:00,
2013-04-09 01:04:00,47.2,40.7,30.09,ESE,120,1.0,3.0,78,0.00,,,0.00,LWC V2.10 B1702,2013-04-09 05:04:00,
2013-04-09 01:09:00,47.3,40.8,30.08,SE,145,0.0,3.0,78,0.00,,,0.00,LWC V2.10 B1702,2013-04-09 05:09:00,
2013-04-09 01:14:00,47.3,40.8,30.09,ESE,116,2.0,2.0,78,0.00,,,0.00,LWC V2.10 B1702,2013-04-09 05:14:00,
2013-04-09 01:19:00,47.2,40.7,30.08,SSE,157,1.0,3.0,78,0.00,,,0.00,LWC V2.10 B1702,2013-04-09 05:19:00,
2013-04-09 01:24:00,47.1,40.9,30.08,SSE,157,3.0,7.0,79,0.00,,,0.00,LWC V2.10 B1702,2013-04-09 05:24:00,
2013-04-09 01:29:00,47.1,40.9,30.07,SE,136,4.0,4.0,79,0.00,,,0.00,LWC V2.10 B1702,2013-04-09 05:29:00,
2013-04-09 01:34:00,47.1,40.9,30.07,SSE,153,4.0,4.0,79,0.00,,,0.00,LWC V2.10 B1702,2013-04-09 05:34:00,
2013-04-09 01:39:00,47.2,41.0,30.08,SSE,163,4.0,10.0,79,0.00,,,0.00,LWC V2.10 B1702,2013-04-09 05:39:00,
2013-04-09 01:44:00,47.2,41.0,30.07,SE,128,3.0,5.0,79,0.00,,,0.00,LWC V2.10 B1702,2013-04-09 05:44:00,
2013-04-09 01:49:00,47.2,41.0,30.07,SSE,161,2.0,4.0,79,0.00,,,0.00,LWC V2.10 B1702,2013-04-09 05:49:00,
2013-04-09 01:54:00,47.3,41.1,30.07,South,178,2.0,3.0,79,0.00,,,0.00,LWC V2.10 B1702,2013-04-09 05:54:00,
2013-04-09 01:59:00,47.3,41.1,30.06,SE,142,0.0,8.0,79,0.00,,,0.00,LWC V2.10 B1702,2013-04-09 05:59:00,
2013-04-09 02:04:00,47.3,41.1,30.06,SSW,197,6.0,6.0,79,0.00,,,0.00,LWC V2.10 B1702,2013-04-09 06:04:00,
2013-04-09 02:09:00,47.4,41.2,30.05,SSE,158,1.0,5.0,79,0.00,,,0.00,LWC V2.10 B1702,2013-04-09 06:09:00,
2013-04-09 02:14:00,47.4,41.2,30.05,ESE,120,3.0,7.0,79,0.00,,,0.00,LWC V2.10 B1702,2013-04-09 06:14:00,
2013-04-09 02:19:00,47.4,41.2,30.06,SSW,211,3.0,4.0,79,0.00,,,0.00,LWC V2.10 B1702,2013-04-09 06:19:00,
2013-04-09 02:24:00,47.4,41.2,30.05,SSE,153,1.0,3.0,79,0.00,,,0.00,LWC V2.10 B1702,2013-04-09 06:24:00,
2013-04-09 02:29:00,47.4,41.2,30.05,South,174,0.0,7.0,79,0.00,,,0.00,LWC V2.10 B1702,2013-04-09 06:29:00,
2013-04-09 02:34:00,47.3,41.1,30.05,SSE,159,1.0,3.0,79,0.00,,,0.00,LWC V2.10 B1702,2013-04-09 06:34:00,
2013-04-09 02:39:00,47.3,41.1,30.05,SSW,192,3.0,5.0,79,0.00,,,0.00,LWC V2.10 B1702,2013-04-09 06:39:00,
2013-04-09 02:44:00,47.3,41.1,30.05,SW,215,2.0,3.0,79,0.00,,,0.00,LWC V2.10 B1702,2013-04-09 06:44:00,
2013-04-09 02:49:00,47.2,41.0,30.05,SE,142,0.0,7.0,79,0.00,,,0.00,LWC V2.10 B1702,2013-04-09 06:49:00,
2013-04-09 02:54:00,47.2,41.0,30.05,SE,132,0.0,3.0,79,0.00,,,0.00,LWC V2.10 B1702,2013-04-09 06:54:00,
2013-04-09 02:59:00,47.2,41.3,30.04,SSE,160,4.0,4.0,80,0.00,,,0.00,LWC V2.10 B1702,2013-04-09 06:59:00,
2013-04-09 03:04:00,47.2,41.3,30.04,South,179,3.0,9.0,80,0.00,,,0.00,LWC V2.10 B1702,2013-04-09 07:04:00,
2013-04-09 03:09:00,47.2,41.3,30.03,South,176,2.0,6.0,80,0.00,,,0.00,LWC V2.10 B1702,2013-04-09 07:09:00,
2013-04-09 03:14:00,47.2,41.3,30.03,SSE,150,2.0,4.0,80,0.00,,,0.00,LWC V2.10 B1702,2013-04-09 07:14:00,
2013-04-09 03:19:00,47.2,41.7,30.03,ESE,118,1.0,6.0,81,0.00,,,0.00,LWC V2.10 B1702,2013-04-09 07:19:00,
2013-04-09 03:24:00,47.3,41.8,30.03,ESE,121,2.0,3.0,81,0.00,,,0.00,LWC V2.10 B1702,2013-04-09 07:24:00,
2013-04-09 03:29:00,47.3,41.8,30.02,ESE,119,4.0,4.0,81,0.00,,,0.00,LWC V2.10 B1702,2013-04-09 07:29:00,
2013-04-09 03:34:00,47.3,42.1,30.03,SSW,200,3.0,9.0,82,0.00,,,0.00,LWC V2.10 B1702,2013-04-09 07:34:00,
2013-04-09 03:39:00,47.3,42.1,30.03,West,261,3.0,6.0,82,0.00,,,0.00,LWC V2.10 B1702,2013-04-09 07:39:00,
2013-04-09 03:44:00,47.3,42.1,30.02,SSE,150,2.0,5.0,82,0.00,,,0.00,LWC V2.10 B1702,2013-04-09 07:44:00,
2013-04-09 03:49:00,47.2,42.0,30.01,South,185,1.0,9.0,82,0.00,,,0.00,LWC V2.10 B1702,2013-04-09 07:49:00,
2013-04-09 03:54:00,47.2,42.3,30.00,SE,127,3.0,6.0,83,0.00,,,0.00,LWC V2.10 B1702,2013-04-09 07:54:00,
2013-04-09 03:59:00,47.2,42.3,30.00,South,180,4.0,7.0,83,0.00,,,0.00,LWC V2.10 B1702,2013-04-09 07:59:00,
2013-04-09 04:04:00,47.1,42.5,30.00,South,182,3.0,7.0,84,0.00,,,0.00,LWC V2.10 B1702,2013-04-09 08:04:00,
2013-04-09 04:09:00,47.1,42.5,30.00,SSW,192,3.0,8.0,84,0.00,,,0.00,LWC V2.10 B1702,2013-04-09 08:09:00,
2013-04-09 04:14:00,47.1,42.5,30.00,SSW,196,2.0,5.0,84,0.00,,,0.00,LWC V2.10 B1702,2013-04-09 08:14:00,
2013-04-09 04:19:00,47.1,42.8,29.99,SE,142,2.0,2.0,85,0.00,,,0.00,LWC V2.10 B1702,2013-04-09 08:19:00,
2013-04-09 04:24:00,47.2,42.9,29.99,South,180,3.0,6.0,85,0.00,,,0.00,LWC V2.10 B1702,2013-04-09 08:24:00,
2013-04-09 04:29:00,47.2,42.9,29.99,SE,134,2.0,4.0,85,0.00,,,0.00,LWC V2.10 B1702,2013-04-09 08:29:00,
2013-04-09 04:34:00,47.2,42.9,29.99,South,170,2.0,5.0,85,0.00,,,0.00,LWC V2.10 B1702,2013-04-09 08:34:00,
2013-04-09 04:39:00,47.2,42.9,29.98,SSE,162,2.0,7.0,85,0.00,,,0.00,LWC V2.10 B1702,2013-04-09 08:39:00,
2013-04-09 04:44:00,47.3,43.3,29.99,South,188,0.0,6.0,86,0.00,,,0.00,LWC V2.10 B1702,2013-04-09 08:44:00,
2013-04-09 04:49:00,47.2,43.2,29.99,South,177,3.0,6.0,86,0.00,,,0.00,LWC V2.10 B1702,2013-04-09 08:49:00,
2013-04-09 04:54:00,47.1,43.4,29.98,South,186,1.0,4.0,87,0.00,,,0.00,LWC V2.10 B1702,2013-04-09 08:54:00,
2013-04-09 04:59:00,47.1,43.4,29.98,South,187,5.0,9.0,87,0.00,,,0.00,LWC V2.10 B1702,2013-04-09 08:59:00,
2013-04-09 05:04:00,47.1,43.7,29.98,SSE,157,2.0,4.0,88,0.00,,,0.00,LWC V2.10 B1702,2013-04-09 09:04:00,
2013-04-09 05:09:00,47.1,43.7,29.97,SW,234,1.0,3.0,88,0.00,,,0.00,LWC V2.10 B1702,2013-04-09 09:09:00,
2013-04-09 05:14:00,47.2,44.1,29.97,SSW,212,0.0,3.0,89,0.00,,,0.00,LWC V2.10 B1702,2013-04-09 09:14:00,
2013-04-09 05:19:00,47.2,44.1,29.97,SE,141,1.0,4.0,89,0.00,,,0.00,LWC V2.10 B1702,2013-04-09 09:19:00,
2013-04-09 05:24:00,47.3,44.2,29.97,ESE,119,3.0,4.0,89,0.00,,,0.00,LWC V2.10 B1702,2013-04-09 09:24:00,
2013-04-09 05:29:00,47.4,44.3,29.97,South,186,0.0,0.0,89,0.00,,,0.00,LWC V2.10 B1702,2013-04-09 09:29:00,
2013-04-09 05:34:00,47.4,44.6,29.97,South,178,1.0,5.0,90,0.00,,,0.00,LWC V2.10 B1702,2013-04-09 09:34:00,
2013-04-09 05:39:00,47.5,44.7,29.97,SSW,203,2.0,5.0,90,0.00,,,0.00,LWC V2.10 B1702,2013-04-09 09:39:00,
2013-04-09 05:44:00,47.6,44.8,29.97,SE,146,1.0,1.0,90,0.00,,,0.00,LWC V2.10 B1702,2013-04-09 09:44:00,
2013-04-09 05:49:00,47.8,45.0,29.98,WSW,250,3.0,3.0,90,0.00,,,0.00,LWC V2.10 B1702,2013-04-09 09:49:00,
2013-04-09 05:54:00,47.9,45.4,29.98,South,178,2.0,4.0,91,0.00,,,0.00,LWC V2.10 B1702,2013-04-09 09:54:00,
2013-04-09 05:59:00,48.0,45.5,29.97,SSE,162,1.0,1.0,91,0.00,,,0.01,LWC V2.10 B1702,2013-04-09 09:59:00,
2013-04-09 06:04:00,48.1,45.6,29.95,SE,136,0.0,2.0,91,0.15,,,0.02,LWC V2.10 B1702,2013-04-09 10:04:00,
2013-04-09 06:09:00,48.1,45.6,29.95,ESE,120,3.0,4.0,91,0.10,,,0.02,LWC V2.10 B1702,2013-04-09 10:09:00,
2013-04-09 06:14:00,48.2,45.7,29.94,SE,145,2.0,4.0,91,0.05,,,0.02,LWC V2.10 B1702,2013-04-09 10:14:00,
2013-04-09 06:19:00,48.2,45.7,29.94,SSE,158,0.0,5.0,91,0.04,,,0.02,LWC V2.10 B1702,2013-04-09 10:19:00,
2013-04-09 06:24:00,48.4,46.2,29.96,SSE,165,1.0,5.0,92,0.00,,,0.02,LWC V2.10 B1702,2013-04-09 10:24:00,
2013-04-09 06:29:00,48.5,46.3,29.94,SW,219,3.0,4.0,92,0.00,,,0.02,LWC V2.10 B1702,2013-04-09 10:29:00,
2013-04-09 06:34:00,48.8,46.6,29.94,SE,124,3.0,6.0,92,0.00,,,0.02,LWC V2.10 B1702,2013-04-09 10:34:00,
2013-04-09 06:39:00,49.4,47.5,29.93,ESE,119,4.0,4.0,93,0.00,,,0.02,LWC V2.10 B1702,2013-04-09 10:39:00,
2013-04-09 06:44:00,49.7,47.8,29.94,SW,226,2.0,11.0,93,0.00,,,0.02,LWC V2.10 B1702,2013-04-09 10:44:00,
2013-04-09 06:49:00,50.0,48.1,29.94,East,94,6.0,6.0,93,0.00,,,0.02,LWC V2.10 B1702,2013-04-09 10:49:00,
2013-04-09 06:54:00,50.0,48.1,29.94,South,184,1.0,6.0,93,0.00,,,0.02,LWC V2.10 B1702,2013-04-09 10:54:00,
2013-04-09 06:59:00,50.1,47.9,29.95,SW,217,3.0,7.0,92,0.00,,,0.02,LWC V2.10 B1702,2013-04-09 10:59:00,
2013-04-09 07:04:00,50.2,48.0,29.95,SSW,197,7.0,7.0,92,0.00,,,0.02,LWC V2.10 B1702,2013-04-09 11:04:00,
2013-04-09 07:09:00,50.5,48.6,29.94,SW,235,4.0,6.0,93,0.00,,,0.02,LWC V2.10 B1702,2013-04-09 11:09:00,
2013-04-09 07:14:00,50.8,48.8,29.94,SSW,200,5.0,8.0,93,0.00,,,0.02,LWC V2.10 B1702,2013-04-09 11:14:00,
2013-04-09 07:19:00,51.0,49.0,29.94,SW,219,3.0,3.0,93,0.00,,,0.02,LWC V2.10 B1702,2013-04-09 11:19:00,
2013-04-09 07:24:00,51.1,49.1,29.95,SSW,196,4.0,5.0,93,0.00,,,0.02,LWC V2.10 B1702,2013-04-09 11:24:00,
2013-04-09 07:29:00,51.3,49.3,29.94,WSW,240,3.0,6.0,93,0.00,,,0.02,LWC V2.10 B1702,2013-04-09 11:29:00,
2013-04-09 07:34:00,51.4,49.4,29.94,SSW,212,5.0,7.0,93,0.00,,,0.02,LWC V2.10 B1702,2013-04-09 11:34:00,
2013-04-09 07:39:00,51.5,49.5,29.93,SSW,202,6.0,8.0,93,0.00,,,0.02,LWC V2.10 B1702,2013-04-09 11:39:00,
2013-04-09 07:44:00,51.6,49.6,29.94,SW,233,7.0,9.0,93,0.00,,,0.02,LWC V2.10 B1702,2013-04-09 11:44:00,
2013-04-09 07:49:00,51.7,49.5,29.93,WSW,248,6.0,7.0,92,0.00,,,0.02,LWC V2.10 B1702,2013-04-09 11:49:00,
2013-04-09 07:54:00,51.8,49.8,29.93,SSW,192,4.0,13.0,93,0.00,,,0.02,LWC V2.10 B1702,2013-04-09 11:54:00,
2013-04-09 07:59:00,51.9,49.6,29.93,WSW,254,5.0,10.0,92,0.00,,,0.02,LWC V2.10 B1702,2013-04-09 11:59:00,
2013-04-09 08:04:00,51.8,49.5,29.93,WSW,250,2.0,9.0,92,0.00,,,0.02,LWC V2.10 B1702,2013-04-09 12:04:00,
2013-04-09 08:09:00,51.7,49.5,29.93,SW,221,2.0,7.0,92,0.00,,,0.02,LWC V2.10 B1702,2013-04-09 12:09:00,
2013-04-09 08:14:00,51.5,49.0,29.93,WSW,242,8.0,10.0,91,0.00,,,0.02,LWC V2.10 B1702,2013-04-09 12:14:00,
2013-04-09 08:19:00,51.5,49.0,29.92,WSW,242,4.0,4.0,91,0.00,,,0.02,LWC V2.10 B1702,2013-04-09 12:19:00,
2013-04-09 08:24:00,51.6,49.1,29.92,WSW,244,4.0,6.0,91,0.00,,,0.02,LWC V2.10 B1702,2013-04-09 12:24:00,
2013-04-09 08:29:00,51.7,49.2,29.92,SW,233,6.0,9.0,91,0.00,,,0.02,LWC V2.10 B1702,2013-04-09 12:29:00,
2013-04-09 08:34:00,51.7,48.9,29.92,SW,214,5.0,10.0,90,0.00,,,0.02,LWC V2.10 B1702,2013-04-09 12:34:00,
2013-04-09 08:39:00,51.6,48.8,29.92,West,265,6.0,7.0,90,0.00,,,0.02,LWC V2.10 B1702,2013-04-09 12:39:00,
2013-04-09 08:44:00,51.6,48.8,29.91,West,266,4.0,6.0,90,0.00,,,0.02,LWC V2.10 B1702,2013-04-09 12:44:00,
2013-04-09 08:49:00,51.8,49.0,29.92,WSW,246,1.0,7.0,90,0.00,,,0.02,LWC V2.10 B1702,2013-04-09 12:49:00,
2013-04-09 08:54:00,51.8,48.7,29.91,SW,217,8.0,9.0,89,0.00,,,0.02,LWC V2.10 B1702,2013-04-09 12:54:00,
2013-04-09 08:59:00,51.8,48.7,29.91,SSW,197,5.0,9.0,89,0.00,,,0.02,LWC V2.10 B1702,2013-04-09 12:59:00,
2013-04-09 09:04:00,51.8,48.4,29.90,West,279,3.0,8.0,88,0.00,,,0.02,LWC V2.10 B1702,2013-04-09 13:04:00,
2013-04-09 09:09:00,51.6,48.2,29.91,SW,232,4.0,8.0,88,0.00,,,0.02,LWC V2.10 B1702,2013-04-09 13:09:00,
2013-04-09 09:14:00,51.4,47.7,29.90,WSW,244,7.0,9.0,87,0.00,,,0.02,LWC V2.10 B1702,2013-04-09 13:14:00,
2013-04-09 09:19:00,51.2,47.5,29.91,SW,226,7.0,10.0,87,0.00,,,0.02,LWC V2.10 B1702,2013-04-09 13:19:00,
2013-04-09 09:24:00,51.2,47.8,29.91,WSW,240,11.0,11.0,88,0.00,,,0.02,LWC V2.10 B1702,2013-04-09 13:24:00,
2013-04-09 09:29:00,51.0,47.3,29.91,West,272,6.0,8.0,87,0.00,,,0.02,LWC V2.10 B1702,2013-04-09 13:29:00,
2013-04-09 09:34:00,51.0,47.3,29.91,SSW,195,6.0,6.0,87,0.00,,,0.02,LWC V2.10 B1702,2013-04-09 13:34:00,
2013-04-09 09:39:00,51.1,47.7,29.91,SW,214,4.0,6.0,88,0.00,,,0.02,LWC V2.10 B1702,2013-04-09 13:39:00,
2013-04-09 09:44:00,51.2,47.5,29.91,West,265,5.0,10.0,87,0.00,,,0.02,LWC V2.10 B1702,2013-04-09 13:44:00,
2013-04-09 09:49:00,51.2,47.5,29.90,SW,222,4.0,11.0,87,0.00,,,0.02,LWC V2.10 B1702,2013-04-09 13:49:00,
2013-04-09 09:54:00,51.5,47.5,29.90,WSW,251,8.0,8.0,86,0.00,,,0.02,LWC V2.10 B1702,2013-04-09 13:54:00,
2013-04-09 09:59:00,51.5,47.5,29.90,WSW,248,7.0,9.0,86,0.00,,,0.02,LWC V2.10 B1702,2013-04-09 13:59:00,
2013-04-09 10:04:00,51.9,47.8,29.90,WSW,253,2.0,6.0,86,0.00,,,0.02,LWC V2.10 B1702,2013-04-09 14:04:00,
2013-04-09 10:09:00,52.2,47.5,29.90,WSW,244,3.0,10.0,84,0.00,,,0.02,LWC V2.10 B1702,2013-04-09 14:09:00,
2013-04-09 10:14:00,52.2,47.8,29.90,SW,231,5.0,9.0,85,0.00,,,0.02,LWC V2.10 B1702,2013-04-09 14:14:00,
2013-04-09 10:19:00,52.4,47.7,29.90,SW,234,10.0,10.0,84,0.00,,,0.02,LWC V2.10 B1702,2013-04-09 14:19:00,
2013-04-09 10:24:00,52.7,48.3,29.90,WSW,239,7.0,8.0,85,0.00,,,0.02,LWC V2.10 B1702,2013-04-09 14:24:00,
2013-04-09 10:29:00,52.8,48.1,29.90,SW,223,8.0,12.0,84,0.00,,,0.02,LWC V2.10 B1702,2013-04-09 14:29:00,
2013-04-09 10:34:00,52.9,47.9,29.90,West,274,2.0,5.0,83,0.00,,,0.02,LWC V2.10 B1702,2013-04-09 14:34:00,
2013-04-09 10:39:00,53.1,48.1,29.90,WSW,242,5.0,9.0,83,0.00,,,0.02,LWC V2.10 B1702,2013-04-09 14:39:00,
2013-04-09 10:44:00,53.2,48.2,29.90,SW,229,5.0,9.0,83,0.00,,,0.02,LWC V2.10 B1702,2013-04-09 14:44:00,
2013-04-09 10:49:00,53.3,47.9,29.90,WSW,251,3.0,10.0,82,0.00,,,0.02,LWC V2.10 B1702,2013-04-09 14:49:00,
2013-04-09 10:54:00,53.3,47.6,29.90,WSW,248,5.0,8.0,81,0.00,,,0.02,LWC V2.10 B1702,2013-04-09 14:54:00,
2013-04-09 10:59:00,53.4,47.7,29.90,SW,225,8.0,8.0,81,0.00,,,0.02,LWC V2.10 B1702,2013-04-09 14:59:00,
2013-04-09 11:04:00,53.9,48.2,29.90,SW,217,3.0,4.0,81,0.00,,,0.02,LWC V2.10 B1702,2013-04-09 15:04:00,
2013-04-09 11:09:00,54.0,48.0,29.90,SW,215,6.0,7.0,80,0.00,,,0.02,LWC V2.10 B1702,2013-04-09 15:09:00,
2013-04-09 11:14:00,53.8,47.4,29.89,WSW,246,6.0,11.0,79,0.00,,,0.02,LWC V2.10 B1702,2013-04-09 15:14:00,
2013-04-09 11:19:00,53.7,48.0,29.89,SW,227,5.0,8.0,81,0.00,,,0.02,LWC V2.10 B1702,2013-04-09 15:19:00,
2013-04-09 11:24:00,54.2,48.5,29.89,West,259,0.0,8.0,81,0.00,,,0.02,LWC V2.10 B1702,2013-04-09 15:24:00,
2013-04-09 11:29:00,54.8,48.7,29.89,SW,216,1.0,3.0,80,0.00,,,0.02,LWC V2.10 B1702,2013-04-09 15:29:00,
2013-04-09 11:34:00,55.5,49.1,29.89,SSE,167,1.0,7.0,79,0.00,,,0.02,LWC V2.10 B1702,2013-04-09 15:34:00,
2013-04-09 11:39:00,56.1,49.0,29.89,SW,229,4.0,8.0,77,0.00,,,0.02,LWC V2.10 B1702,2013-04-09 15:39:00,
2013-04-09 11:44:00,56.1,48.6,29.89,SW,232,8.0,8.0,76,0.00,,,0.02,LWC V2.10 B1702,2013-04-09 15:44:00,
2013-04-09 11:49:00,55.5,48.1,29.89,SW,219,5.0,8.0,76,0.00,,,0.02,LWC V2.10 B1702,2013-04-09 15:49:00,
2013-04-09 11:54:00,55.1,48.4,29.89,SW,234,3.0,7.0,78,0.00,,,0.02,LWC V2.10 B1702,2013-04-09 15:54:00,
2013-04-09 11:59:00,54.8,47.7,29.89,SW,233,6.0,8.0,77,0.00,,,0.02,LWC V2.10 B1702,2013-04-09 15:59:00,
2013-04-09 12:04:00,54.6,48.2,29.89,SSW,193,4.0,9.0,79,0.00,,,0.02,LWC V2.10 B1702,2013-04-09 16:04:00,
2013-04-09 12:09:00,54.4,47.3,29.89,West,275,6.0,9.0,77,0.00,,,0.02,LWC V2.10 B1702,2013-04-09 16:09:00,
2013-04-09 12:14:00,54.7,48.3,29.88,SW,223,6.0,6.0,79,0.00,,,0.02,LWC V2.10 B1702,2013-04-09 16:14:00,
2013-04-09 12:19:00,54.7,47.6,29.88,NNW,333,1.0,8.0,77,0.00,,,0.02,LWC V2.10 B1702,2013-04-09 16:19:00,
2013-04-09 12:24:00,55.0,47.9,29.88,SW,234,7.0,12.0,77,0.00,,,0.02,LWC V2.10 B1702,2013-04-09 16:24:00,
2013-04-09 12:29:00,54.9,48.2,29.88,West,261,7.0,7.0,78,0.00,,,0.02,LWC V2.10 B1702,2013-04-09 16:29:00,
2013-04-09 12:34:00,54.7,48.0,29.88,SW,229,7.0,7.0,78,0.00,,,0.02,LWC V2.10 B1702,2013-04-09 16:34:00,
2013-04-09 12:39:00,54.9,48.2,29.89,WSW,254,6.0,9.0,78,0.00,,,0.02,LWC V2.10 B1702,2013-04-09 16:39:00,
2013-04-09 12:44:00,54.7,47.6,29.88,SW,221,4.0,11.0,77,0.00,,,0.02,LWC V2.10 B1702,2013-04-09 16:44:00,
2013-04-09 12:49:00,54.8,47.7,29.87,SSW,201,8.0,8.0,77,0.00,,,0.02,LWC V2.10 B1702,2013-04-09 16:49:00,
2013-04-09 12:54:00,55.4,48.7,29.87,WSW,240,6.0,8.0,78,0.00,,,0.02,LWC V2.10 B1702,2013-04-09 16:54:00,
2013-04-09 12:59:00,55.6,48.5,29.88,WSW,244,1.0,6.0,77,0.00,,,0.02,LWC V2.10 B1702,2013-04-09 16:59:00,
2013-04-09 13:04:00,56.0,48.9,29.87,West,277,8.0,8.0,77,0.00,,,0.02,LWC V2.10 B1702,2013-04-09 17:04:00,
2013-04-09 13:09:00,56.8,49.0,29.86,SSW,203,7.0,10.0,75,0.00,,,0.02,LWC V2.10 B1702,2013-04-09 17:09:00,
2013-04-09 13:14:00,56.5,47.9,29.86,West,263,7.0,9.0,73,0.00,,,0.02,LWC V2.10 B1702,2013-04-09 17:14:00,
2013-04-09 13:19:00,55.8,48.0,29.86,SSW,209,5.0,6.0,75,0.00,,,0.02,LWC V2.10 B1702,2013-04-09 17:19:00,
2013-04-09 13:24:00,56.0,48.5,29.86,WSW,245,6.0,9.0,76,0.00,,,0.02,LWC V2.10 B1702,2013-04-09 17:24:00,
2013-04-09 13:29:00,56.2,49.1,29.87,SW,226,5.0,10.0,77,0.00,,,0.02,LWC V2.10 B1702,2013-04-09 17:29:00,
2013-04-09 13:34:00,56.8,49.3,29.87,WSW,243,4.0,11.0,76,0.00,,,0.02,LWC V2.10 B1702,2013-04-09 17:34:00,
2013-04-09 13:39:00,57.0,49.2,29.87,WSW,241,7.0,8.0,75,0.00,,,0.02,LWC V2.10 B1702,2013-04-09 17:39:00,
2013-04-09 13:44:00,57.1,49.2,29.87,SSW,202,4.0,10.0,75,0.00,,,0.02,LWC V2.10 B1702,2013-04-09 17:44:00,
2013-04-09 13:49:00,57.0,48.8,29.86,SSW,209,7.0,9.0,74,0.00,,,0.02,LWC V2.10 B1702,2013-04-09 17:49:00,
2013-04-09 13:54:00,57.1,48.9,29.87,SW,229,10.0,10.0,74,0.00,,,0.02,LWC V2.10 B1702,2013-04-09 17:54:00,
2013-04-09 13:59:00,57.2,49.0,29.87,SW,216,7.0,9.0,74,0.00,,,0.02,LWC V2.10 B1702,2013-04-09 17:59:00,
2013-04-09 14:04:00,57.1,48.9,29.87,WSW,255,7.0,9.0,74,0.00,,,0.02,LWC V2.10 B1702,2013-04-09 18:04:00,
2013-04-09 14:09:00,57.0,48.8,29.88,SW,226,4.0,10.0,74,0.00,,,0.02,LWC V2.10 B1702,2013-04-09 18:09:00,
2013-04-09 14:14:00,57.1,48.9,29.88,SW,215,5.0,5.0,74,0.00,,,0.02,LWC V2.10 B1702,2013-04-09 18:14:00,
2013-04-09 14:19:00,57.4,48.8,29.87,West,264,2.0,8.0,73,0.00,,,0.02,LWC V2.10 B1702,2013-04-09 18:19:00,
2013-04-09 14:24:00,57.2,49.0,29.87,SW,236,5.0,9.0,74,0.00,,,0.02,LWC V2.10 B1702,2013-04-09 18:24:00,
2013-04-09 14:29:00,57.5,49.3,29.88,WSW,243,6.0,6.0,74,0.00,,,0.02,LWC V2.10 B1702,2013-04-09 18:29:00,
2013-04-09 14:34:00,57.8,48.8,29.88,SW,221,4.0,6.0,72,0.00,,,0.02,LWC V2.10 B1702,2013-04-09 18:34:00,
2013-04-09 14:39:00,58.3,49.7,29.88,WSW,241,4.0,5.0,73,0.00,,,0.02,LWC V2.10 B1702,2013-04-09 18:39:00,
2013-04-09 14:44:00,58.6,49.2,29.88,WSW,257,4.0,6.0,71,0.00,,,0.02,LWC V2.10 B1702,2013-04-09 18:44:00,
2013-04-09 14:49:00,58.8,49.4,29.88,SSW,205,2.0,5.0,71,0.00,,,0.02,LWC V2.10 B1702,2013-04-09 18:49:00,
2013-04-09 14:54:00,59.0,50.0,29.88,SE,130,3.0,5.0,72,0.00,,,0.02,LWC V2.10 B1702,2013-04-09 18:54:00,
2013-04-09 14:59:00,58.9,48.7,29.88,WSW,243,1.0,5.0,69,0.00,,,0.02,LWC V2.10 B1702,2013-04-09 18:59:00,
2013-04-09 15:04:00,58.9,49.5,29.88,SSW,194,2.0,3.0,71,0.00,,,0.02,LWC V2.10 B1702,2013-04-09 19:04:00,
2013-04-09 15:09:00,59.5,49.7,29.89,ENE,68,2.0,3.0,70,0.00,,,0.02,LWC V2.10 B1702,2013-04-09 19:09:00,
2013-04-09 15:14:00,60.2,50.4,29.89,SE,133,2.0,3.0,70,0.00,,,0.02,LWC V2.10 B1702,2013-04-09 19:14:00,
2013-04-09 15:19:00,61.2,50.5,29.89,WSW,247,1.0,6.0,68,0.00,,,0.02,LWC V2.10 B1702,2013-04-09 19:19:00,
2013-04-09 15:24:00,61.2,49.7,29.88,SW,220,3.0,6.0,66,0.00,,,0.02,LWC V2.10 B1702,2013-04-09 19:24:00,
2013-04-09 15:29:00,61.3,49.4,29.89,WSW,251,3.0,5.0,65,0.00,,,0.02,LWC V2.10 B1702,2013-04-09 19:29:00,
2013-04-09 15:34:00,61.4,49.9,29.89,NNE,30,0.0,1.0,66,0.00,,,0.02,LWC V2.10 B1702,2013-04-09 19:34:00,
2013-04-09 15:39:00,61.8,49.5,29.89,WSW,248,3.0,5.0,64,0.00,,,0.02,LWC V2.10 B1702,2013-04-09 19:39:00,
2013-04-09 15:44:00,62.1,49.8,29.89,SSW,202,4.0,4.0,64,0.00,,,0.02,LWC V2.10 B1702,2013-04-09 19:44:00,
2013-04-09 15:49:00,62.4,49.6,29.89,WSW,240,0.0,2.0,63,0.00,,,0.02,LWC V2.10 B1702,2013-04-09 19:49:00,
2013-04-09 15:54:00,62.8,50.0,29.88,West,262,2.0,3.0,63,0.00,,,0.02,LWC V2.10 B1702,2013-04-09 19:54:00,
2013-04-09 15:59:00,63.4,50.1,29.88,SW,214,4.0,5.0,62,0.00,,,0.02,LWC V2.10 B1702,2013-04-09 19:59:00,
2013-04-09 16:04:00,63.9,50.2,29.88,West,279,0.0,2.0,61,0.00,,,0.02,LWC V2.10 B1702,2013-04-09 20:04:00,
2013-04-09 16:09:00,64.4,49.8,29.89,SW,236,3.0,5.0,59,0.00,,,0.02,LWC V2.10 B1702,2013-04-09 20:09:00,
2013-04-09 16:14:00,64.8,50.1,29.89,WSW,240,0.0,3.0,59,0.00,,,0.02,LWC V2.10 B1702,2013-04-09 20:14:00,
2013-04-09 16:19:00,65.1,49.5,29.89,South,189,3.0,3.0,57,0.00,,,0.02,LWC V2.10 B1702,2013-04-09 20:19:00,
2013-04-09 16:24:00,65.0,49.4,29.89,SW,232,4.0,4.0,57,0.00,,,0.02,LWC V2.10 B1702,2013-04-09 20:24:00,
2013-04-09 16:29:00,64.8,49.2,29.89,WSW,256,0.0,3.0,57,0.00,,,0.02,LWC V2.10 B1702,2013-04-09 20:29:00,
2013-04-09 16:34:00,64.6,49.5,29.89,SSW,196,0.0,2.0,58,0.00,,,0.02,LWC V2.10 B1702,2013-04-09 20:34:00,
2013-04-09 16:39:00,64.7,48.6,29.90,West,262,3.0,3.0,56,0.00,,,0.02,LWC V2.10 B1702,2013-04-09 20:39:00,
2013-04-09 16:44:00,64.8,48.7,29.90,WSW,246,2.0,3.0,56,0.00,,,0.02,LWC V2.10 B1702,2013-04-09 20:44:00,
2013-04-09 16:49:00,64.9,48.3,29.90,WSW,254,0.0,0.0,55,0.00,,,0.02,LWC V2.10 B1702,2013-04-09 20:49:00,
2013-04-09 16:54:00,65.2,48.6,29.91,SSW,208,0.0,1.0,55,0.00,,,0.02,LWC V2.10 B1702,2013-04-09 20:54:00,
2013-04-09 16:59:00,65.6,49.0,29.91,NNW,333,1.0,1.0,55,0.00,,,0.02,LWC V2.10 B1702,2013-04-09 20:59:00,
2013-04-09 17:04:00,66.0,48.9,29.91,NNW,333,0.0,0.0,54,0.00,,,0.02,LWC V2.10 B1702,2013-04-09 21:04:00,
2013-04-09 17:09:00,66.2,50.0,29.91,SE,126,0.0,0.0,56,0.00,,,0.02,LWC V2.10 B1702,2013-04-09 21:09:00,
2013-04-09 17:14:00,66.5,49.8,29.91,NNE,24,0.0,2.0,55,0.00,,,0.02,LWC V2.10 B1702,2013-04-09 21:14:00,
2013-04-09 17:19:00,66.9,51.6,29.92,SE,129,1.0,1.0,58,0.00,,,0.02,LWC V2.10 B1702,2013-04-09 21:19:00,
2013-04-09 17:24:00,67.1,51.8,29.91,East,88,2.0,4.0,58,0.00,,,0.02,LWC V2.10 B1702,2013-04-09 21:24:00,
2013-04-09 17:29:00,67.0,52.2,29.92,East,79,0.0,1.0,59,0.00,,,0.02,LWC V2.10 B1702,2013-04-09 21:29:00,
2013-04-09 17:34:00,67.0,52.2,29.92,ENE,71,5.0,5.0,59,0.00,,,0.02,LWC V2.10 B1702,2013-04-09 21:34:00,
2013-04-09 17:39:00,66.5,51.3,29.92,SSE,150,1.0,4.0,58,0.00,,,0.02,LWC V2.10 B1702,2013-04-09 21:39:00,
2013-04-09 17:44:00,66.1,51.3,29.92,East,92,2.0,5.0,59,0.00,,,0.02,LWC V2.10 B1702,2013-04-09 21:44:00,
2013-04-09 17:49:00,65.2,50.5,29.93,ENE,63,1.0,4.0,59,0.00,,,0.02,LWC V2.10 B1702,2013-04-09 21:49:00,
2013-04-09 17:54:00,64.5,50.3,29.94,East,82,2.0,3.0,60,0.00,,,0.02,LWC V2.10 B1702,2013-04-09 21:54:00,
2013-04-09 17:59:00,63.5,49.8,29.94,SE,126,0.0,7.0,61,0.00,,,0.02,LWC V2.10 B1702,2013-04-09 21:59:00,
2013-04-09 18:04:00,62.7,49.9,29.94,East,96,3.0,5.0,63,0.00,,,0.02,LWC V2.10 B1702,2013-04-09 22:04:00,
2013-04-09 18:09:00,62.3,50.0,29.94,ENE,76,4.0,5.0,64,0.00,,,0.02,LWC V2.10 B1702,2013-04-09 22:09:00,
2013-04-09 18:14:00,61.8,49.5,29.94,ENE,69,3.0,5.0,64,0.00,,,0.02,LWC V2.10 B1702,2013-04-09 22:14:00,
2013-04-09 18:19:00,61.4,49.5,29.95,ENE,77,1.0,4.0,65,0.00,,,0.02,LWC V2.10 B1702,2013-04-09 22:19:00,
2013-04-09 18:24:00,61.1,49.2,29.95,East,80,3.0,3.0,65,0.00,,,0.02,LWC V2.10 B1702,2013-04-09 22:24:00,
2013-04-09 18:29:00,60.7,49.3,29.96,ESE,119,1.0,1.0,66,0.00,,,0.02,LWC V2.10 B1702,2013-04-09 22:29:00,
2013-04-09 18:34:00,60.3,49.3,29.96,East,96,0.0,1.0,67,0.00,,,0.02,LWC V2.10 B1702,2013-04-09 22:34:00,
2013-04-09 18:39:00,59.8,48.8,29.96,East,90,1.0,3.0,67,0.00,,,0.02,LWC V2.10 B1702,2013-04-09 22:39:00,
2013-04-09 18:44:00,59.3,48.7,29.96,NE,40,1.0,3.0,68,0.00,,,0.02,LWC V2.10 B1702,2013-04-09 22:44:00,
2013-04-09 18:49:00,58.9,48.4,29.96,ESE,103,1.0,1.0,68,0.00,,,0.02,LWC V2.10 B1702,2013-04-09 22:49:00,
2013-04-09 18:54:00,58.4,48.3,29.96,East,92,3.0,5.0,69,0.00,,,0.02,LWC V2.10 B1702,2013-04-09 22:54:00,
2013-04-09 18:59:00,57.8,48.1,29.96,ENE,63,2.0,3.0,70,0.00,,,0.02,LWC V2.10 B1702,2013-04-09 22:59:00,
2013-04-09 19:04:00,57.4,48.1,29.97,East,86,0.0,1.0,71,0.00,,,0.02,LWC V2.10 B1702,2013-04-09 23:04:00,
2013-04-09 19:09:00,57.0,47.7,29.97,East,84,1.0,3.0,71,0.00,,,0.02,LWC V2.10 B1702,2013-04-09 23:09:00,
2013-04-09 19:14:00,56.6,47.3,29.97,ENE,65,2.0,5.0,71,0.00,,,0.02,LWC V2.10 B1702,2013-04-09 23:14:00,
2013-04-09 19:19:00,56.1,47.2,29.97,ESE,111,3.0,5.0,72,0.00,,,0.02,LWC V2.10 B1702,2013-04-09 23:19:00,
2013-04-09 19:24:00,55.6,46.7,29.97,ESE,113,0.0,1.0,72,0.00,,,0.02,LWC V2.10 B1702,2013-04-09 23:24:00,
2013-04-09 19:29:00,55.2,46.7,29.97,ESE,118,2.0,3.0,73,0.00,,,0.02,LWC V2.10 B1702,2013-04-09 23:29:00,
2013-04-09 19:34:00,54.9,46.4,29.97,East,88,0.0,2.0,73,0.00,,,0.02,LWC V2.10 B1702,2013-04-09 23:34:00,
2013-04-09 19:39:00,54.6,46.5,29.97,East,81,2.0,2.0,74,0.00,,,0.02,LWC V2.10 B1702,2013-04-09 23:39:00,
2013-04-09 19:44:00,54.3,46.2,29.97,ESE,116,1.0,2.0,74,0.00,,,0.02,LWC V2.10 B1702,2013-04-09 23:44:00,
2013-04-09 19:49:00,53.9,46.2,29.98,ESE,103,0.0,3.0,75,0.00,,,0.02,LWC V2.10 B1702,2013-04-09 23:49:00,
2013-04-09 19:54:00,53.6,45.9,29.99,ENE,76,0.0,2.0,75,0.00,,,0.02,LWC V2.10 B1702,2013-04-09 23:54:00,
2013-04-09 19:59:00,53.4,46.0,29.99,East,87,1.0,3.0,76,0.00,,,0.02,LWC V2.10 B1702,2013-04-09 23:59:00,
2013-04-09 20:04:00,53.1,45.7,30.00,ENE,78,2.0,2.0,76,0.00,,,0.02,LWC V2.10 B1702,2013-04-10 00:04:00,
2013-04-09 20:09:00,52.8,45.4,30.00,ENE,78,0.0,2.0,76,0.00,,,0.02,LWC V2.10 B1702,2013-04-10 00:09:00,
2013-04-09 20:14:00,52.6,45.6,30.01,ESE,102,0.0,0.0,77,0.00,,,0.02,LWC V2.10 B1702,2013-04-10 00:14:00,
2013-04-09 20:19:00,52.4,45.4,30.01,ESE,102,0.0,0.0,77,0.00,,,0.02,LWC V2.10 B1702,2013-04-10 00:19:00,
2013-04-09 20:24:00,52.2,45.2,30.01,East,101,0.0,1.0,77,0.00,,,0.02,LWC V2.10 B1702,2013-04-10 00:24:00,
2013-04-09 20:29:00,51.9,45.3,30.02,SE,125,0.0,0.0,78,0.00,,,0.02,LWC V2.10 B1702,2013-04-10 00:29:00,
2013-04-09 20:34:00,51.7,45.1,30.01,SE,125,0.0,0.0,78,0.00,,,0.02,LWC V2.10 B1702,2013-04-10 00:34:00,
2013-04-09 20:39:00,51.4,45.1,30.02,SE,126,0.0,1.0,79,0.00,,,0.02,LWC V2.10 B1702,2013-04-10 00:39:00,
2013-04-09 20:44:00,51.2,44.9,30.01,East,101,0.0,0.0,79,0.00,,,0.02,LWC V2.10 B1702,2013-04-10 00:44:00,
2013-04-09 20:49:00,50.9,45.0,30.02,East,101,0.0,0.0,80,0.00,,,0.02,LWC V2.10 B1702,2013-04-10 00:49:00,
2013-04-09 20:54:00,50.7,44.8,30.02,East,101,0.0,0.0,80,0.00,,,0.02,LWC V2.10 B1702,2013-04-10 00:54:00,
2013-04-09 20:59:00,50.5,44.6,30.01,East,101,0.0,1.0,80,0.00,,,0.02,LWC V2.10 B1702,2013-04-10 00:59:00,
2013-04-09 21:04:00,50.3,44.7,30.02,ESE,103,0.0,1.0,81,0.00,,,0.02,LWC V2.10 B1702,2013-04-10 01:04:00,
2013-04-09 21:09:00,50.1,44.5,30.02,ESE,103,0.0,1.0,81,0.00,,,0.02,LWC V2.10 B1702,2013-04-10 01:09:00,
2013-04-09 21:14:00,50.0,44.4,30.02,ESE,103,0.0,0.0,81,0.00,,,0.02,LWC V2.10 B1702,2013-04-10 01:14:00,
2013-04-09 21:19:00,49.8,44.2,30.03,ESE,103,0.0,1.0,81,0.00,,,0.02,LWC V2.10 B1702,2013-04-10 01:19:00,
2013-04-09 21:24:00,49.7,44.4,30.03,ESE,103,0.0,0.0,82,0.00,,,0.02,LWC V2.10 B1702,2013-04-10 01:24:00,
2013-04-09 21:29:00,49.5,44.2,30.03,ESE,103,0.0,0.0,82,0.00,,,0.02,LWC V2.10 B1702,2013-04-10 01:29:00,
2013-04-09 21:34:00,49.2,43.9,30.03,ESE,103,0.0,0.0,82,0.00,,,0.02,LWC V2.10 B1702,2013-04-10 01:34:00,
2013-04-09 21:39:00,49.0,43.7,30.03,ESE,103,0.0,1.0,82,0.00,,,0.02,LWC V2.10 B1702,2013-04-10 01:39:00,
2013-04-09 21:44:00,48.8,43.6,30.03,ESE,103,0.0,0.0,82,0.00,,,0.02,LWC V2.10 B1702,2013-04-10 01:44:00,
2013-04-09 21:49:00,48.6,43.7,30.03,East,86,0.0,1.0,83,0.00,,,0.02,LWC V2.10 B1702,2013-04-10 01:49:00,
2013-04-09 21:54:00,48.4,43.5,30.03,East,86,0.0,0.0,83,0.00,,,0.02,LWC V2.10 B1702,2013-04-10 01:54:00,
2013-04-09 21:59:00,48.2,43.3,30.03,East,86,0.0,0.0,83,0.00,,,0.02,LWC V2.10 B1702,2013-04-10 01:59:00,
2013-04-09 22:04:00,48.0,43.4,30.03,East,86,0.0,0.0,84,0.00,,,0.02,LWC V2.10 B1702,2013-04-10 02:04:00,
2013-04-09 22:09:00,47.8,43.2,30.03,ESE,105,0.0,0.0,84,0.00,,,0.02,LWC V2.10 B1702,2013-04-10 02:09:00,
2013-04-09 22:14:00,47.7,43.1,30.04,ESE,105,0.0,0.0,84,0.00,,,0.02,LWC V2.10 B1702,2013-04-10 02:14:00,
2013-04-09 22:19:00,47.5,42.9,30.03,ESE,105,0.0,0.0,84,0.00,,,0.02,LWC V2.10 B1702,2013-04-10 02:19:00,
2013-04-09 22:24:00,47.3,42.7,30.03,ESE,105,0.0,0.0,84,0.00,,,0.02,LWC V2.10 B1702,2013-04-10 02:24:00,
2013-04-09 22:29:00,47.1,42.8,30.03,ESE,115,0.0,1.0,85,0.00,,,0.02,LWC V2.10 B1702,2013-04-10 02:29:00,
2013-04-09 22:34:00,47.1,42.8,30.03,SE,125,0.0,0.0,85,0.00,,,0.02,LWC V2.10 B1702,2013-04-10 02:34:00,
2013-04-09 22:39:00,47.0,43.0,30.03,SE,125,1.0,1.0,86,0.00,,,0.02,LWC V2.10 B1702,2013-04-10 02:39:00,
2013-04-09 22:44:00,47.0,43.0,30.03,NE,55,2.0,2.0,86,0.00,,,0.02,LWC V2.10 B1702,2013-04-10 02:44:00,
2013-04-09 22:49:00,46.9,42.9,30.02,SE,138,0.0,0.0,86,0.00,,,0.02,LWC V2.10 B1702,2013-04-10 02:49:00,
2013-04-09 22:54:00,46.9,42.9,30.03,ESE,121,2.0,2.0,86,0.00,,,0.02,LWC V2.10 B1702,2013-04-10 02:54:00,
2013-04-09 22:59:00,46.9,43.2,30.02,SE,129,1.0,4.0,87,0.00,,,0.02,LWC V2.10 B1702,2013-04-10 02:59:00,
2013-04-09 23:04:00,46.9,43.2,30.02,ENE,63,0.0,0.0,87,0.00,,,0.02,LWC V2.10 B1702,2013-04-10 03:04:00,
2013-04-09 23:09:00,46.9,43.2,30.02,SE,124,0.0,0.0,87,0.00,,,0.02,LWC V2.10 B1702,2013-04-10 03:09:00,
2013-04-09 23:14:00,46.8,43.1,30.02,SSE,149,0.0,0.0,87,0.00,,,0.02,LWC V2.10 B1702,2013-04-10 03:14:00,
2013-04-09 23:19:00,46.7,43.0,30.03,South,174,0.0,3.0,87,0.00,,,0.02,LWC V2.10 B1702,2013-04-10 03:19:00,
2013-04-09 23:24:00,46.7,43.0,30.02,SE,127,1.0,1.0,87,0.00,,,0.02,LWC V2.10 B1702,2013-04-10 03:24:00,
2013-04-09 23:29:00,46.7,43.0,30.02,ESE,121,1.0,2.0,87,0.00,,,0.02,LWC V2.10 B1702,2013-04-10 03:29:00,
2013-04-09 23:34:00,46.8,43.1,30.01,SE,128,3.0,3.0,87,0.00,,,0.02,LWC V2.10 B1702,2013-04-10 03:34:00,
2013-04-09 23:39:00,46.8,43.1,30.00,ESE,116,2.0,3.0,87,0.00,,,0.02,LWC V2.10 B1702,2013-04-10 03:39:00,
2013-04-09 23:44:00,46.8,43.1,30.00,ESE,115,0.0,1.0,87,0.00,,,0.02,LWC V2.10 B1702,2013-04-10 03:44:00,
2013-04-09 23:49:00,46.8,43.1,30.00,SE,132,0.0,4.0,87,0.00,,,0.02,LWC V2.10 B1702,2013-04-10 03:49:00,
2013-04-09 23:54:00,46.7,43.0,30.00,SSE,157,1.0,2.0,87,0.00,,,0.02,LWC V2.10 B1702,2013-04-10 03:54:00,
2013-04-09 23:59:00,46.7,43.0,29.99,SE,134,0.0,2.0,87,0.00,,,0.02,LWC V2.10 B1702,2013-04-10 03:59:00,